QPF
0.03 0.04 0.04 0.06 0.06 0.07 0.08 0.09 0.11 0.12 0.12 0.10 0.08 0.09 0.09 0.08 0.10 0.12 0.12 0.08 0.05 0.04 0.04 0.06 0.06 0.05 0.04 0.04 0.05 0.07 0.09 0.11 0.11 0.10 0.08 0.05 0.04 0.03 0.03 0.03 0.02 0.02 0.02
0.04 0.05 0.05 0.06 0.06 0.06 0.07 0.07 0.09 0.12 0.12 0.10 0.08 0.08 0.10 0.10 0.10 0.12 0.14 0.13 0.09 0.05 0.03 0.03 0.03 0.04 0.03 0.03 0.03 0.03 0.06 0.10 0.13 0.14 0.13 0.10 0.07 0.04 0.03 0.02 0.02 0.02 0.02
0.04 0.05 0.05 0.05 0.06 0.06 0.06 0.06 0.07 0.12 0.13 0.11 0.09 0.09 0.09 0.10 0.10 0.10 0.10 0.12 0.14 0.12 0.07 0.05 0.03 0.03 0.03 0.02 0.02 0.02 0.02 0.04 0.08 0.11 0.14 0.15 0.11 0.08 0.06 0.04 0.03 0.02 0.02
0.04 0.06 0.06 0.05 0.06 0.05 0.05 0.05 0.05 0.10 0.17 0.15 0.10 0.08 0.09 0.09 0.09 0.09 0.08 0.08 0.09 0.13 0.13 0.10 0.07 0.05 0.04 0.03 0.01 0.01 0.02 0.02 0.02 0.04 0.07 0.11 0.13 0.11 0.10 0.09 0.06 0.04 0.03
0.04 0.05 0.06 0.05 0.06 0.05 0.05 0.06 0.07 0.07 0.13 0.21 0.16 0.11 0.08 0.08 0.09 0.08 0.07 0.08 0.07 0.08 0.10 0.11 0.09 0.08 0.06 0.05 0.03 0.02 0.01 0.01 0.02 0.02 0.02 0.04 0.06 0.07 0.07 0.07 0.07 0.06 0.04
0.05 0.04 0.05 0.05 0.06 0.06 0.05 0.06 0.08 0.07 0.07 0.13 0.20 0.18 0.12 0.09 0.08 0.08 0.07 0.07 0.08 0.07 0.07 0.08 0.08 0.08 0.07 0.06 0.05 0.03 0.02 0.02 0.02 0.02 0.02 0.02 0.03 0.04 0.04 0.04 0.04 0.04 0.03
0.06 0.05 0.05 0.05 0.04 0.04 0.04 0.04 0.06 0.07 0.06 0.08 0.15 0.21 0.19 0.14 0.11 0.09 0.09 0.06 0.06 0.07 0.08 0.08 0.08 0.08 0.07 0.06 0.05 0.04 0.03 0.02 0.02 0.01 0.01 0.02 0.02 0.02 0.03 0.03 0.02 0.02 0.03
0.05 0.05 0.05 0.05 0.04 0.03 0.03 0.03 0.04 0.05 0.06 0.06 0.10 0.16 0.19 0.19 0.15 0.12 0.09 0.08 0.05 0.05 0.06 0.08 0.08 0.08 0.08 0.07 0.07 0.07 0.05 0.03 0.02 0.02 0.01 0.01 0.01 0.01 0.02 0.02 0.02 0.03 0.02
0.04 0.03 0.04 0.05 0.05 0.04 0.04 0.03 0.03 0.03 0.04 0.06 0.08 0.12 0.15 0.16 0.15 0.12 0.10 0.08 0.06 0.04 0.05 0.06 0.09 0.08 0.09 0.08 0.07 0.08 0.08 0.06 0.03 0.02 0.02 0.01 0.01 0.01 0.02 0.02 0.02 0.03 0.03
0.04 0.04 0.05 0.06 0.05 0.04 0.05 0.04 0.03 0.03 0.03 0.04 0.09 0.13 0.13 0.13 0.13 0.12 0.10 0.08 0.07 0.05 0.04 0.05 0.07 0.09 0.08 0.09 0.09 0.08 0.08 0.08 0.07 0.04 0.02 0.01 0.01 0.01 0.01 0.01 0.01 0.02 0.02
0.05 0.06 0.06 0.06 0.05 0.04 0.06 0.06 0.04 0.03 0.03 0.04 0.05 0.11 0.13 0.11 0.11 0.13 0.11 0.09 0.07 0.05 0.05 0.05 0.05 0.06 0.07 0.06 0.07 0.08 0.06 0.07 0.08 0.06 0.04 0.02 0.01 0.01 0.01 0.01 0.01 0.01 0.02
0.06 0.06 0.04 0.04 0.05 0.05 0.07 0.08 0.07 0.05 0.03 0.04 0.05 0.06 0.09 0.10 0.10 0.10 0.11 0.10 0.08 0.06 0.04 0.04 0.03 0.03 0.04 0.05 0.04 0.05 0.05 0.05 0.06 0.06 0.05 0.04 0.02 0.01 0.01 0.01 0.01 0.01 0.01
0.06 0.05 0.03 0.03 0.05 0.05 0.06 0.07 0.08 0.08 0.06 0.05 0.05 0.05 0.06 0.07 0.09 0.08 0.07 0.08 0.08 0.07 0.05 0.04 0.03 0.03 0.03 0.03 0.04 0.04 0.03 0.03 0.04 0.04 0.04 0.04 0.04 0.03 0.02 0.01 0.01 0.01 0.01
0.05 0.05 0.02 0.02 0.04 0.06 0.05 0.05 0.06 0.08 0.08 0.06 0.05 0.06 0.04 0.04 0.06 0.08 0.07 0.07 0.07 0.06 0.05 0.04 0.03 0.03 0.03 0.03 0.03 0.03 0.03 0.03 0.03 0.03 0.03 0.03 0.04 0.04 0.03 0.02 0.01 0.01 0.01
0.04 0.04 0.03 0.02 0.03 0.05 0.05 0.03 0.03 0.05 0.06 0.05 0.04 0.06 0.05 0.03 0.03 0.05 0.07 0.07 0.08 0.06 0.05 0.04 0.03 0.03 0.04 0.04 0.04 0.04 0.03 0.03 0.03 0.03 0.03 0.03 0.04 0.04 0.04 0.03 0.02 0.02 0.01
0.03 0.04 0.03 0.03 0.03 0.03 0.03 0.03 0.03 0.03 0.04 0.04 0.03 0.04 0.04 0.04 0.03 0.04 0.04 0.05 0.06 0.07 0.05 0.04 0.03 0.04 0.04 0.05 0.05 0.05 0.05 0.05 0.04 0.04 0.03 0.03 0.04 0.04 0.04 0.03 0.03 0.02 0.02
0.02 0.02 0.02 0.02 0.03 0.02 0.02 0.03 0.03 0.03 0.04 0.03 0.02 0.03 0.04 0.03 0.03 0.03 0.03 0.03 0.03 0.04 0.05 0.05 0.03 0.04 0.04 0.04 0.05 0.05 0.04 0.05 0.04 0.04 0.04 0.03 0.03 0.03 0.02 0.02 0.02 0.02 0.02
0.02 0.02 0.02 0.02 0.02 0.02 0.02 0.03 0.03 0.03 0.03 0.03 0.03 0.03 0.03 0.03 0.03 0.03 0.03 0.02 0.02 0.02 0.03 0.04 0.04 0.03 0.04 0.04 0.03 0.03 0.03 0.04 0.04 0.04 0.04 0.03 0.02 0.02 0.02 0.02 0.02 0.01 0.02
0.03 0.03 0.03 0.02 0.02 0.02 0.02 0.02 0.02 0.03 0.03 0.04 0.04 0.03 0.04 0.04 0.04 0.03 0.03 0.03 0.02 0.02 0.02 0.02 0.03 0.03 0.03 0.03 0.02 0.02 0.02 0.02 0.03 0.03 0.03 0.02 0.02 0.02 0.02 0.02 0.02 0.02 0.02
0.04 0.04 0.03 0.03 0.02 0.02 0.02 0.02 0.02 0.02 0.02 0.03 0.03 0.04 0.04 0.05 0.04 0.04 0.04 0.03 0.03 0.02 0.02 0.02 0.02 0.02 0.02 0.02 0.02 0.01 0.02 0.02 0.02 0.02 0.02 0.02 0.02 0.02 0.02 0.02 0.02 0.02 0.01
0.04 0.04 0.04 0.04 0.03 0.02 0.02 0.02 0.02 0.02 0.02 0.02 0.03 0.03 0.04 0.05 0.05 0.05 0.04 0.04 0.03 0.03 0.02 0.01 0.01 0.01 0.02 0.02 0.02 0.02 0.02 0.02 0.02 0.02 0.01 0.02 0.02 0.02 0.02 0.02 0.02 0.02 0.01
0.04 0.04 0.04 0.05 0.04 0.02 0.02 0.02 0.03 0.02 0.02 0.02 0.02 0.03 0.04 0.04 0.05 0.05 0.04 0.04 0.03 0.03 0.02 0.02 0.02 0.02 0.02 0.02 0.02 0.02 0.02 0.02 0.02 0.01 0.01 0.01 0.02 0.02 0.02 0.01 0.01 0.01 0.01
0.03 0.04 0.05 0.06 0.03 0.02 0.02 0.02 0.03 0.02 0.02 0.02 0.02 0.02 0.03 0.04 0.04 0.04 0.04 0.04 0.04 0.03 0.02 0.02 0.02 0.02 0.02 0.02 0.02 0.02 0.02 0.02 0.02 0.02 0.02 0.01 0.01 0.01 0.01 0.01 0.01 0.01 0.01
0.03 0.04 0.06 0.05 0.03 0.02 0.02 0.02 0.03 0.02 0.02 0.02 0.02 0.02 0.02 0.03 0.03 0.04 0.04 0.04 0.04 0.03 0.03 0.02 0.02 0.02 0.01 0.01 0.02 0.02 0.02 0.02 0.02 0.02 0.02 0.02 0.02 0.01 0.01 0.01 0.01 0.01 0.01
0.03 0.04 0.05 0.04 0.03 0.03 0.03 0.03 0.03 0.02 0.02 0.02 0.02 0.02 0.02 0.02 0.03 0.03 0.03 0.03 0.03 0.03 0.04 0.03 0.03 0.02 0.02 0.02 0.02 0.02 0.02 0.02 0.02 0.03 0.02 0.02 0.02 0.01 0.01 0.01 0.01 0.01 0.01
0.04 0.04 0.04 0.04 0.04 0.04 0.04 0.03 0.03 0.02 0.02 0.02 0.02 0.02 0.02 0.02 0.02 0.03 0.03 0.03 0.03 0.03 0.03 0.03 0.03 0.03 0.03 0.03 0.03 0.02 0.03 0.03 0.03 0.03 0.03 0.02 0.02 0.01 0.01 0.01 0.01 0.01 0.01
MSLP
1023.23 1022.08 1020.81 1019.40 1017.85 1016.18 1014.45 1012.72 1011.11 1009.74 1008.71 1008.11 1007.98 1008.32 1009.07 1010.13 1011.37 1012.67 1013.91 1015.01 1015.95 1016.74 1017.41 1018.04 1018.68 1019.39 1020.19 1021.07 1022.01 1022.96 1023.87 1024.69 1025.40 1025.99 1026.48 1026.88 1027.23 1027.53 1027.82 1028.08 1028.31 1028.49 1028.61
1023.51 1022.33 1021.01 1019.56 1017.97 1016.25 1014.47 1012.68 1011.01 1009.56 1008.45 1007.76 1007.55 1007.81 1008.50 1009.53 1010.76 1012.08 1013.36 1014.54 1015.55 1016.41 1017.14 1017.80 1018.45 1019.15 1019.91 1020.75 1021.65 1022.56 1023.45 1024.29 1025.04 1025.69 1026.26 1026.75 1027.19 1027.60 1027.97 1028.31 1028.60 1028.84 1029.00
1023.69 1022.48 1021.14 1019.67 1018.06 1016.32 1014.51 1012.69 1010.98 1009.47 1008.29 1007.52 1007.22 1007.38 1007.98 1008.94 1010.13 1011.43 1012.73 1013.95 1015.02 1015.95 1016.75 1017.46 1018.14 1018.83 1019.56 1020.36 1021.20 1022.07 1022.94 1023.77 1024.54 1025.25 1025.89 1026.47 1027.00 1027.49 1027.94 1028.34 1028.70 1028.99 1029.20
1023.83 1022.61 1021.27 1019.79 1018.17 1016.43 1014.61 1012.78 1011.04 1009.49 1008.25 1007.40 1006.99 1007.04 1007.52 1008.37 1009.47 1010.72 1012.01 1013.25 1014.38 1015.37 1016.24 1017.02 1017.74 1018.45 1019.17 1019.94 1020.74 1021.57 1022.41 1023.22 1024.01 1024.75 1025.44 1026.08 1026.67 1027.22 1027.73 1028.18 1028.58 1028.92 1029.18
1023.99 1022.77 1021.43 1019.95 1018.34 1016.60 1014.78 1012.95 1011.19 1009.62 1008.32 1007.38 1006.86 1006.78 1007.12 1007.83 1008.81 1009.97 1011.21 1012.45 1013.61 1014.68 1015.63 1016.49 1017.28 1018.03 1018.78 1019.55 1020.33 1021.13 1021.94 1022.74 1023.52 1024.27 1024.98 1025.64 1026.26 1026.84 1027.37 1027.85 1028.27 1028.64 1028.94
1024.21 1022.99 1021.65 1020.17 1018.56 1016.83 1015.01 1013.19 1011.42 1009.82 1008.47 1007.45 1006.82 1006.60 1006.77 1007.32 1008.15 1009.20 1010.36 1011.57 1012.76 1013.89 1014.93 1015.89 1016.78 1017.61 1018.42 1019.21 1020.00 1020.80 1021.58 1022.36 1023.12 1023.85 1024.55 1025.21 1025.82 1026.39 1026.92 1027.39 1027.82 1028.20 1028.53
1024.50 1023.27 1021.92 1020.44 1018.82 1017.09 1015.29 1013.46 1011.70 1010.07 1008.68 1007.58 1006.84 1006.47 1006.48 1006.85 1007.52 1008.42 1009.49 1010.65 1011.85 1013.03 1014.16 1015.23 1016.24 1017.18 1018.08 1018.93 1019.76 1020.56 1021.33 1022.09 1022.82 1023.52 1024.18 1024.80 1025.38 1025.92 1026.42 1026.87 1027.29 1027.67 1028.02
1024.83 1023.58 1022.22 1020.73 1019.11 1017.38 1015.57 1013.75 1011.99 1010.36 1008.93 1007.76 1006.91 1006.40 1006.24 1006.42 1006.92 1007.66 1008.62 1009.71 1010.89 1012.11 1013.33 1014.51 1015.65 1016.71 1017.72 1018.66 1019.54 1020.37 1021.15 1021.88 1022.58 1023.24 1023.85 1024.43 1024.97 1025.47 1025.93 1026.36 1026.77 1027.16 1027.53
1025.19 1023.93 1022.55 1021.05 1019.42 1017.68 1015.88 1014.07 1012.31 1010.67 1009.21 1007.98 1007.03 1006.39 1006.06 1006.06 1006.37 1006.95 1007.77 1008.78 1009.92 1011.16 1012.45 1013.73 1014.98 1016.18 1017.29 1018.33 1019.27 1020.14 1020.94 1021.66 1022.34 1022.96 1023.54 1024.08 1024.58 1025.05 1025.49 1025.91 1026.32 1026.72 1027.11
1025.60 1024.31 1022.92 1021.40 1019.77 1018.04 1016.25 1014.45 1012.70 1011.05 1009.56 1008.28 1007.23 1006.46 1005.98 1005.79 1005.92 1006.32 1006.99 1007.89 1008.98 1010.21 1011.53 1012.89 1014.24 1015.54 1016.76 1017.88 1018.90 1019.81 1020.63 1021.36 1022.03 1022.63 1023.19 1023.71 1024.20 1024.67 1025.11 1025.55 1025.98 1026.40 1026.83
1026.07 1024.77 1023.37 1021.85 1020.22 1018.50 1016.73 1014.94 1013.20 1011.55 1010.04 1008.70 1007.56 1006.66 1006.02 1005.66 1005.59 1005.82 1006.33 1007.11 1008.11 1009.30 1010.62 1012.01 1013.42 1014.80 1016.10 1017.29 1018.37 1019.33 1020.17 1020.92 1021.59 1022.20 1022.76 1023.29 1023.80 1024.30 1024.78 1025.26 1025.73 1026.20 1026.67
1026.65 1025.35 1023.95 1022.44 1020.82 1019.12 1017.37 1015.61 1013.88 1012.23 1010.68 1009.28 1008.05 1007.03 1006.23 1005.70 1005.45 1005.49 1005.84 1006.47 1007.37 1008.48 1009.77 1011.16 1012.59 1014.00 1015.34 1016.58 1017.70 1018.69 1019.56 1020.33 1021.02 1021.65 1022.24 1022.81 1023.36 1023.91 1024.46 1025.00 1025.53 1026.06 1026.58
1027.37 1026.08 1024.69 1023.20 1021.61 1019.94 1018.22 1016.48 1014.76 1013.10 1011.52 1010.06 1008.73 1007.58 1006.64 1005.94 1005.51 1005.38 1005.56 1006.05 1006.82 1007.84 1009.05 1010.40 1011.81 1013.21 1014.56 1015.81 1016.94 1017.95 1018.84 1019.63 1020.34 1021.00 1021.64 1022.26 1022.87 1023.48 1024.10 1024.71 1025.31 1025.91 1026.48
1028.24 1026.96 1025.59 1024.13 1022.58 1020.95 1019.26 1017.55 1015.84 1014.17 1012.56 1011.02 1009.61 1008.34 1007.26 1006.40 1005.81 1005.52 1005.54 1005.88 1006.52 1007.43 1008.55 1009.83 1011.17 1012.53 1013.84 1015.07 1016.18 1017.18 1018.07 1018.88 1019.61 1020.31 1020.98 1021.65 1022.32 1022.99 1023.67 1024.35 1025.01 1025.66 1026.27
1029.22 1027.96 1026.62 1025.19 1023.68 1022.09 1020.45 1018.77 1017.08 1015.39 1013.74 1012.15 1010.65 1009.28 1008.07 1007.08 1006.35 1005.91 1005.79 1006.00 1006.52 1007.30 1008.32 1009.49 1010.74 1012.02 1013.27 1014.44 1015.51 1016.48 1017.36 1018.16 1018.90 1019.61 1020.32 1021.02 1021.73 1022.45 1023.17 1023.89 1024.59 1025.27 1025.91
1030.25 1029.00 1027.68 1026.29 1024.82 1023.29 1021.69 1020.05 1018.38 1016.69 1015.02 1013.38 1011.81 1010.35 1009.04 1007.94 1007.10 1006.55 1006.32 1006.40 1006.80 1007.47 1008.36 1009.42 1010.56 1011.74 1012.89 1013.98 1014.99 1015.91 1016.75 1017.53 1018.27 1018.99 1019.70 1020.42 1021.15 1021.88 1022.62 1023.35 1024.06 1024.74 1025.39
1031.23 1029.99 1028.69 1027.34 1025.92 1024.44 1022.90 1021.31 1019.67 1018.00 1016.31 1014.65 1013.03 1011.51 1010.14 1008.96 1008.04 1007.40 1007.08 1007.06 1007.35 1007.91 1008.68 1009.60 1010.62 1011.67 1012.71 1013.70 1014.63 1015.49 1016.29 1017.04 1017.76 1018.47 1019.18 1019.90 1020.62 1021.34 1022.06 1022.77 1023.46 1024.13 1024.76
1032.08 1030.84 1029.56 1028.24 1026.88 1025.46 1023.99 1022.46 1020.87 1019.24 1017.57 1015.91 1014.28 1012.73 1011.32 1010.11 1009.13 1008.43 1008.03 1007.93 1008.12 1008.56 1009.21 1010.00 1010.88 1011.80 1012.71 1013.59 1014.43 1015.21 1015.96 1016.68 1017.38 1018.08 1018.77 1019.48 1020.18 1020.88 1021.57 1022.24 1022.89 1023.52 1024.12
1032.74 1031.50 1030.24 1028.97 1027.67 1026.33 1024.94 1023.49 1021.98 1020.40 1018.78 1017.14 1015.53 1013.99 1012.58 1011.34 1010.34 1009.60 1009.14 1008.96 1009.05 1009.38 1009.89 1010.54 1011.27 1012.05 1012.83 1013.59 1014.33 1015.05 1015.74 1016.42 1017.11 1017.79 1018.48 1019.17 1019.86 1020.53 1021.18 1021.81 1022.42 1023.01 1023.58
1033.19 1031.97 1030.76 1029.54 1028.32 1027.07 1025.77 1024.42 1022.99 1021.50 1019.95 1018.37 1016.80 1015.29 1013.90 1012.67 1011.65 1010.87 1010.36 1010.11 1010.10 1010.30 1010.67 1011.16 1011.74 1012.37 1013.01 1013.65 1014.30 1014.94 1015.58 1016.24 1016.91 1017.59 1018.28 1018.97 1019.65 1020.30 1020.93 1021.53 1022.10 1022.65 1023.19
1033.50 1032.32 1031.16 1030.02 1028.89 1027.74 1026.55 1025.30 1023.98 1022.58 1021.12 1019.62 1018.12 1016.66 1015.30 1014.09 1013.06 1012.26 1011.69 1011.35 1011.23 1011.30 1011.52 1011.85 1012.27 1012.73 1013.23 1013.75 1014.30 1014.86 1015.46 1016.09 1016.76 1017.44 1018.14 1018.84 1019.52 1020.17 1020.79 1021.38 1021.93 1022.46 1022.97
1033.72 1032.62 1031.54 1030.49 1029.46 1028.42 1027.34 1026.21 1025.00 1023.71 1022.35 1020.94 1019.52 1018.12 1016.81 1015.62 1014.59 1013.76 1013.13 1012.70 1012.47 1012.39 1012.45 1012.61 1012.86 1013.16 1013.51 1013.90 1014.34 1014.83 1015.38 1015.98 1016.63 1017.31 1018.02 1018.73 1019.42 1020.09 1020.71 1021.30 1021.85 1022.37 1022.87
1033.97 1032.96 1031.99 1031.05 1030.12 1029.18 1028.22 1027.19 1026.09 1024.91 1023.65 1022.34 1021.00 1019.68 1018.42 1017.26 1016.23 1015.37 1014.69 1014.17 1013.81 1013.59 1013.49 1013.48 1013.55 1013.69 1013.88 1014.14 1014.47 1014.87 1015.35 1015.91 1016.53 1017.20 1017.90 1018.62 1019.32 1019.99 1020.63 1021.22 1021.77 1022.30 1022.80
1034.31 1033.42 1032.57 1031.73 1030.91 1030.07 1029.20 1028.27 1027.27 1026.18 1025.02 1023.80 1022.55 1021.31 1020.10 1018.98 1017.97 1017.10 1016.36 1015.76 1015.29 1014.94 1014.68 1014.51 1014.42 1014.39 1014.43 1014.55 1014.76 1015.05 1015.44 1015.93 1016.50 1017.12 1017.80 1018.49 1019.18 1019.84 1020.48 1021.07 1021.63 1022.16 1022.66
1034.77 1034.03 1033.29 1032.55 1031.82 1031.06 1030.26 1029.41 1028.48 1027.48 1026.40 1025.28 1024.12 1022.95 1021.82 1020.75 1019.77 1018.89 1018.12 1017.46 1016.90 1016.44 1016.05 1015.74 1015.49 1015.32 1015.21 1015.19 1015.27 1015.44 1015.73 1016.11 1016.59 1017.13 1017.74 1018.37 1019.01 1019.64 1020.25 1020.82 1021.37 1021.90 1022.40
1035.37 1034.75 1034.12 1033.47 1032.80 1032.10 1031.35 1030.54 1029.67 1028.73 1027.74 1026.69 1025.62 1024.55 1023.50 1022.50 1021.57 1020.71 1019.94 1019.25 1018.63 1018.09 1017.60 1017.18 1016.81 1016.50 1016.27 1016.12 1016.06 1016.11 1016.26 1016.52 1016.87 1017.30 1017.80 1018.33 1018.88 1019.43 1019.98 1020.51 1021.03 1021.53 1022.02
Thickness
5500 5505 5512 5519 5526 5532 5538 5544 5549 5552 5557 5561 5564 5566 5569 5571 5574 5576 5578 5580 5583 5585 5587 5588 5589 5590 5591 5592 5593 5593 5593 5592 5593 5593 5593 5593 5595 5596 5596 5597 5597 5597 5598
5487 5492 5500 5507 5513 5519 5526 5532 5536 5540 5545 5549 5552 5554 5557 5560 5562 5564 5567 5569 5572 5574 5577 5578 5580 5581 5582 5582 5583 5584 5583 5583 5584 5585 5584 5585 5585 5587 5589 5589 5590 5590 5591
5473 5480 5488 5494 5500 5508 5514 5519 5523 5528 5532 5536 5540 5543 5546 5548 5550 5553 5555 5557 5561 5563 5566 5567 5569 5571 5572 5573 5573 5575 5575 5574 5574 5576 5578 5577 5578 5577 5580 5581 5582 5582 5583
5461 5468 5475 5481 5488 5495 5500 5506 5511 5516 5520 5524 5528 5531 5534 5536 5538 5541 5543 5545 5549 5552 5554 5556 5558 5560 5562 5563 5564 5566 5567 5567 5566 5567 5569 5570 5571 5570 5571 5572 5574 5575 5576
5450 5457 5463 5468 5475 5482 5487 5493 5498 5502 5506 5511 5515 5518 5521 5523 5526 5529 5532 5534 5537 5540 5543 5545 5548 5549 5552 5554 5555 5556 5558 5558 5559 5559 5560 5560 5561 5563 5564 5564 5565 5567 5568
5440 5446 5452 5457 5464 5469 5475 5481 5485 5489 5493 5498 5502 5506 5508 5510 5514 5517 5520 5522 5526 5529 5532 5535 5537 5539 5541 5543 5545 5548 5549 5550 5551 5552 5553 5553 5554 5554 5555 5556 5557 5558 5560
5429 5434 5440 5446 5452 5457 5463 5468 5473 5477 5481 5486 5490 5493 5495 5498 5502 5506 5508 5510 5514 5518 5521 5524 5526 5529 5531 5533 5535 5538 5539 5540 5542 5543 5544 5546 5547 5548 5548 5549 5549 5549 5551
5418 5423 5428 5435 5439 5445 5450 5456 5461 5465 5469 5473 5477 5481 5484 5487 5491 5494 5497 5499 5502 5506 5509 5512 5516 5518 5520 5522 5525 5527 5529 5530 5532 5533 5535 5537 5538 5539 5541 5541 5541 5542 5542
5408 5412 5417 5423 5428 5433 5438 5443 5448 5453 5457 5461 5465 5469 5472 5475 5478 5481 5484 5487 5490 5494 5498 5501 5504 5507 5510 5512 5514 5516 5517 5519 5521 5523 5525 5527 5528 5530 5532 5533 5534 5535 5536
5399 5403 5407 5412 5418 5423 5427 5432 5437 5442 5446 5450 5453 5457 5461 5463 5466 5469 5472 5475 5478 5481 5486 5490 5493 5496 5498 5500 5502 5504 5507 5508 5510 5512 5514 5516 5518 5520 5522 5523 5524 5526 5528
5389 5394 5398 5401 5406 5411 5415 5420 5425 5430 5434 5437 5440 5444 5448 5451 5454 5457 5460 5463 5466 5469 5473 5476 5480 5483 5486 5488 5491 5493 5495 5497 5500 5501 5503 5505 5507 5509 5510 5512 5514 5515 5516
5380 5383 5387 5391 5395 5400 5404 5408 5412 5417 5422 5425 5428 5431 5435 5438 5441 5445 5448 5451 5453 5457 5460 5463 5466 5470 5473 5476 5478 5481 5483 5485 5488 5490 5492 5494 5496 5498 5500 5501 5503 5504 5506
5370 5373 5376 5379 5383 5388 5392 5396 5400 5404 5409 5413 5416 5420 5423 5426 5429 5432 5435 5438 5441 5444 5447 5450 5453 5456 5460 5463 5467 5469 5472 5474 5477 5480 5482 5484 5486 5488 5489 5491 5492 5494 5495
5360 5363 5365 5367 5371 5375 5379 5384 5388 5392 5396 5399 5403 5407 5410 5414 5417 5420 5423 5426 5429 5432 5435 5437 5440 5444 5448 5451 5454 5458 5460 5463 5465 5468 5471 5473 5475 5478 5479 5481 5482 5483 5484
5351 5352 5353 5355 5358 5362 5367 5371 5375 5379 5383 5386 5390 5394 5397 5401 5404 5408 5411 5414 5417 5420 5422 5425 5428 5432 5436 5439 5442 5446 5448 5451 5453 5456 5459 5462 5465 5467 5469 5471 5472 5472 5473
5341 5342 5343 5344 5346 5350 5354 5358 5363 5367 5370 5374 5377 5381 5384 5388 5391 5395 5398 5401 5405 5407 5410 5413 5417 5420 5424 5427 5431 5433 5436 5439 5441 5443 5446 5449 5452 5455 5457 5460 5461 5462 5462
5330 5331 5332 5334 5336 5338 5342 5346 5351 5355 5358 5361 5364 5368 5371 5375 5378 5382 5385 5388 5392 5395 5398 5401 5405 5408 5412 5415 5418 5421 5423 5426 5428 5431 5433 5436 5439 5442 5444 5446 5448 5449 5450
5320 5322 5323 5324 5326 5328 5331 5335 5339 5343 5346 5349 5352 5355 5359 5362 5365 5369 5373 5376 5380 5383 5386 5389 5393 5397 5400 5403 5406 5408 5411 5413 5415 5418 5420 5423 5426 5428 5430 5432 5434 5435 5437
5311 5312 5313 5315 5316 5318 5321 5324 5328 5331 5334 5337 5340 5343 5346 5350 5354 5357 5360 5364 5367 5370 5374 5377 5380 5384 5387 5391 5394 5396 5398 5401 5404 5406 5408 5411 5414 5416 5418 5420 5422 5423 5424
5302 5303 5305 5306 5307 5309 5311 5314 5317 5320 5323 5326 5329 5332 5335 5338 5342 5345 5348 5351 5355 5358 5362 5365 5368 5371 5375 5379 5382 5384 5387 5390 5392 5394 5397 5399 5402 5403 5405 5407 5409 5411 5412
5295 5296 5296 5296 5298 5300 5302 5305 5307 5310 5313 5316 5318 5321 5324 5327 5331 5334 5337 5340 5343 5347 5350 5354 5357 5360 5363 5367 5370 5373 5376 5379 5381 5383 5386 5388 5390 5392 5394 5396 5397 5399 5399
5288 5288 5289 5289 5291 5292 5293 5296 5297 5300 5303 5305 5308 5310 5313 5316 5321 5323 5327 5329 5332 5334 5337 5340 5344 5348 5351 5355 5358 5362 5366 5368 5371 5373 5375 5377 5378 5381 5382 5384 5385 5386 5385
5281 5281 5281 5283 5284 5285 5285 5287 5289 5291 5293 5295 5297 5300 5303 5306 5309 5313 5316 5318 5321 5323 5326 5329 5333 5337 5340 5343 5347 5351 5354 5357 5359 5362 5364 5366 5367 5369 5370 5371 5372 5372 5372
5274 5274 5274 5275 5276 5277 5278 5279 5281 5283 5284 5285 5287 5290 5293 5296 5299 5302 5305 5308 5310 5313 5316 5320 5323 5326 5329 5332 5335 5338 5341 5345 5348 5350 5352 5354 5356 5357 5358 5358 5358 5359 5359
5267 5267 5267 5267 5268 5269 5270 5272 5273 5275 5276 5277 5279 5281 5284 5286 5288 5291 5294 5297 5300 5303 5307 5310 5313 5316 5319 5322 5326 5328 5332 5335 5338 5339 5341 5342 5343 5343 5344 5344 5345 5346 5346
5260 5260 5260 5261 5262 5262 5264 5265 5267 5268 5269 5271 5272 5273 5275 5277 5279 5281 5284 5288 5291 5295 5298 5301 5304 5307 5311 5314 5317 5320 5323 5326 5328 5329 5330 5331 5331 5331 5331 5331 5332 5333 5334